Time,TemperatureF,DewpointF,PressureIn,WindDirection,WindDirectionDegrees,WindSpeedMPH,WindSpeedGustMPH,Humidity,HourlyPrecipIn,Conditions,Clouds,dailyrainin,SoftwareType,DateUTC
2013-04-07 00:01:00,66.1,53.1,29.89,SSW,208,0.0,7.0,63,0.00,,,0.00,Weather View 32 v70,2013-04-07 05:01:00,
2013-04-07 00:06:00,66.0,53.4,29.89,SSW,208,0.0,7.0,64,0.00,,,0.00,Weather View 32 v70,2013-04-07 05:06:00,
2013-04-07 00:11:00,65.9,53.3,29.89,SSW,208,0.0,6.0,64,0.00,,,0.00,Weather View 32 v70,2013-04-07 05:11:00,
2013-04-07 00:21:00,65.4,53.3,29.89,SSW,207,0.0,5.0,65,0.00,,,0.00,Weather View 32 v70,2013-04-07 05:21:00,
2013-04-07 00:26:00,65.2,53.5,29.89,SSW,203,2.0,5.0,66,0.00,,,0.00,Weather View 32 v70,2013-04-07 05:26:00,
2013-04-07 00:36:00,64.9,53.2,29.89,SSW,201,0.0,5.0,66,0.00,,,0.00,Weather View 32 v70,2013-04-07 05:36:00,
2013-04-07 00:46:00,64.6,53.4,29.88,South,191,0.0,7.0,67,0.00,,,0.00,Weather View 32 v70,2013-04-07 05:46:00,
2013-04-07 00:51:00,64.4,53.2,29.88,South,191,0.0,7.0,67,0.00,,,0.00,Weather View 32 v70,2013-04-07 05:51:00,
2013-04-07 01:00:00,63.9,53.1,29.89,South,191,0.0,7.0,68,0.00,,,0.00,Weather View 32 v70,2013-04-07 06:00:00,
2013-04-07 01:06:00,63.7,53.3,29.89,South,191,0.0,7.0,69,0.00,,,0.00,Weather View 32 v70,2013-04-07 06:06:00,
2013-04-07 01:12:00,63.6,53.2,29.89,South,191,4.0,7.0,69,0.00,,,0.00,Weather View 32 v70,2013-04-07 06:12:00,
2013-04-07 01:20:00,63.2,52.8,29.89,South,191,0.0,7.0,69,0.00,,,0.00,Weather View 32 v70,2013-04-07 06:20:00,
2013-04-07 01:26:00,63.1,52.7,29.88,South,191,0.0,7.0,69,0.00,,,0.00,Weather View 32 v70,2013-04-07 06:26:00,
2013-04-07 01:35:00,62.9,52.9,29.88,South,191,0.0,7.0,70,0.00,,,0.00,Weather View 32 v70,2013-04-07 06:35:00,
2013-04-07 01:41:00,62.8,52.8,29.88,South,191,0.0,7.0,70,0.00,,,0.00,Weather View 32 v70,2013-04-07 06:41:00,
2013-04-07 01:50:00,62.5,52.6,29.88,South,191,0.0,4.0,70,0.00,,,0.00,Weather View 32 v70,2013-04-07 06:50:00,
2013-04-07 01:56:00,62.4,52.8,29.88,South,191,0.0,4.0,71,0.00,,,0.00,Weather View 32 v70,2013-04-07 06:56:00,
2013-04-07 02:01:00,62.2,52.7,29.88,South,191,0.0,4.0,71,0.00,,,0.00,Weather View 32 v70,2013-04-07 07:01:00,
2013-04-07 02:06:00,62.1,52.6,29.89,South,191,0.0,4.0,71,0.00,,,0.00,Weather View 32 v70,2013-04-07 07:06:00,
2013-04-07 02:11:00,62.0,52.8,29.89,South,191,0.0,4.0,72,0.00,,,0.00,Weather View 32 v70,2013-04-07 07:11:00,
2013-04-07 02:16:00,61.9,52.8,29.89,South,191,0.0,3.0,72,0.00,,,0.00,Weather View 32 v70,2013-04-07 07:16:00,
2013-04-07 02:21:00,61.8,52.7,29.89,South,191,0.0,3.0,72,0.00,,,0.00,Weather View 32 v70,2013-04-07 07:21:00,
2013-04-07 02:31:00,61.7,52.9,29.89,South,191,0.0,2.0,73,0.00,,,0.00,Weather View 32 v70,2013-04-07 07:31:00,
2013-04-07 02:41:00,61.6,53.2,29.89,South,191,0.0,2.0,74,0.00,,,0.00,Weather View 32 v70,2013-04-07 07:41:00,
2013-04-07 02:51:00,61.5,53.5,29.88,South,191,0.0,2.0,75,0.00,,,0.00,Weather View 32 v70,2013-04-07 07:51:00,
2013-04-07 02:56:00,61.4,53.7,29.88,South,191,0.0,2.0,76,0.00,,,0.00,Weather View 32 v70,2013-04-07 07:56:00,
2013-04-07 03:06:00,61.4,54.1,29.88,South,191,0.0,2.0,77,0.00,,,0.00,Weather View 32 v70,2013-04-07 08:06:00,
2013-04-07 03:13:00,61.4,54.1,29.88,South,191,2.0,4.0,77,0.00,,,0.00,Weather View 32 v70,2013-04-07 08:13:00,
2013-04-07 03:20:00,61.5,54.6,29.88,South,191,3.0,4.0,78,0.00,,,0.00,Weather View 32 v70,2013-04-07 08:20:00,
2013-04-07 03:26:00,61.6,54.7,29.88,South,191,3.0,5.0,78,0.00,,,0.00,Weather View 32 v70,2013-04-07 08:26:00,
2013-04-07 03:36:00,61.9,54.9,29.88,South,191,2.0,6.0,78,0.00,,,0.00,Weather View 32 v70,2013-04-07 08:36:00,
2013-04-07 03:46:00,61.8,55.2,29.88,South,191,0.0,6.0,79,0.00,,,0.00,Weather View 32 v70,2013-04-07 08:46:00,
2013-04-07 03:56:00,61.6,55.0,29.88,South,191,0.0,6.0,79,0.00,,,0.00,Weather View 32 v70,2013-04-07 08:56:00,
2013-04-07 04:06:00,61.5,55.3,29.88,South,191,1.0,6.0,80,0.00,,,0.00,Weather View 32 v70,2013-04-07 09:06:00,
2013-04-07 04:14:00,61.5,55.3,29.88,South,191,0.0,6.0,80,0.00,,,0.00,Weather View 32 v70,2013-04-07 09:14:00,
2013-04-07 04:21:00,61.4,55.2,29.88,South,191,0.0,6.0,80,0.00,,,0.00,Weather View 32 v70,2013-04-07 09:21:00,
2013-04-07 04:30:00,60.7,54.1,29.87,South,191,0.0,6.0,79,0.00,,,0.00,Weather View 32 v70,2013-04-07 09:30:00,
2013-04-07 04:36:00,60.0,53.5,29.87,South,191,0.0,6.0,79,0.00,,,0.00,Weather View 32 v70,2013-04-07 09:36:00,
2013-04-07 04:46:00,59.1,53.3,29.87,South,191,0.0,6.0,81,0.00,,,0.00,Weather View 32 v70,2013-04-07 09:46:00,
2013-04-07 04:55:00,58.5,53.0,29.87,South,191,0.0,6.0,82,0.00,,,0.00,Weather View 32 v70,2013-04-07 09:55:00,
2013-04-07 05:00:00,58.4,52.9,29.87,South,191,0.0,5.0,82,0.00,,,0.00,Weather View 32 v70,2013-04-07 10:00:00,
2013-04-07 05:05:00,58.2,52.7,29.87,South,191,0.0,5.0,82,0.00,,,0.00,Weather View 32 v70,2013-04-07 10:05:00,
2013-04-07 05:11:00,58.1,52.6,29.87,South,191,0.0,5.0,82,0.00,,,0.00,Weather View 32 v70,2013-04-07 10:11:00,
2013-04-07 05:16:00,58.1,53.0,29.87,South,191,0.0,2.0,83,0.00,,,0.00,Weather View 32 v70,2013-04-07 10:16:00,
2013-04-07 05:25:00,57.8,52.7,29.87,South,191,0.0,1.0,83,0.00,,,0.00,Weather View 32 v70,2013-04-07 10:25:00,
2013-04-07 05:31:00,57.7,52.6,29.87,South,191,0.0,1.0,83,0.00,,,0.00,Weather View 32 v70,2013-04-07 10:31:00,
2013-04-07 05:36:00,57.7,52.6,29.87,South,191,0.0,1.0,83,0.00,,,0.00,Weather View 32 v70,2013-04-07 10:36:00,
2013-04-07 05:46:00,57.4,52.6,29.87,South,191,0.0,1.0,84,0.00,,,0.00,Weather View 32 v70,2013-04-07 10:46:00,
2013-04-07 05:51:00,57.4,52.6,29.87,South,191,0.0,1.0,84,0.00,,,0.00,Weather View 32 v70,2013-04-07 10:51:00,
2013-04-07 06:01:00,57.4,52.9,29.87,South,191,0.0,1.0,85,0.00,,,0.00,Weather View 32 v70,2013-04-07 11:01:00,
2013-04-07 06:10:00,57.5,53.3,29.87,South,191,0.0,2.0,86,0.00,,,0.00,Weather View 32 v70,2013-04-07 11:10:00,
2013-04-07 06:15:00,57.5,53.3,29.87,South,191,0.0,2.0,86,0.00,,,0.00,Weather View 32 v70,2013-04-07 11:15:00,
2013-04-07 06:21:00,57.7,53.5,29.87,South,191,1.0,3.0,86,0.00,,,0.00,Weather View 32 v70,2013-04-07 11:21:00,
2013-04-07 06:30:00,58.1,54.2,29.88,South,191,0.0,4.0,87,0.00,,,0.00,Weather View 32 v70,2013-04-07 11:30:00,
2013-04-07 06:36:00,58.3,54.4,29.88,South,191,0.0,5.0,87,0.00,,,0.00,Weather View 32 v70,2013-04-07 11:36:00,
2013-04-07 06:45:00,58.6,54.7,29.89,South,191,0.0,5.0,87,0.00,,,0.00,Weather View 32 v70,2013-04-07 11:45:00,
2013-04-07 06:51:00,58.8,54.9,29.89,South,191,1.0,5.0,87,0.00,,,0.00,Weather View 32 v70,2013-04-07 11:51:00,
2013-04-07 07:01:00,58.9,54.7,29.89,South,191,0.0,5.0,86,0.00,,,0.00,Weather View 32 v70,2013-04-07 12:01:00,
2013-04-07 07:10:00,58.7,54.5,29.89,South,191,0.0,5.0,86,0.00,,,0.00,Weather View 32 v70,2013-04-07 12:10:00,
2013-04-07 07:16:00,58.5,54.3,29.89,South,191,0.0,5.0,86,0.00,,,0.00,Weather View 32 v70,2013-04-07 12:16:00,
2013-04-07 07:25:00,58.7,54.8,29.89,South,191,0.0,5.0,87,0.00,,,0.00,Weather View 32 v70,2013-04-07 12:25:00,
2013-04-07 07:31:00,59.0,55.1,29.89,South,190,5.0,5.0,87,0.00,,,0.00,Weather View 32 v70,2013-04-07 12:31:00,
2013-04-07 07:36:00,59.2,55.3,29.90,South,189,0.0,5.0,87,0.00,,,0.00,Weather View 32 v70,2013-04-07 12:36:00,
2013-04-07 07:45:00,59.6,55.4,29.90,South,181,3.0,7.0,86,0.00,,,0.00,Weather View 32 v70,2013-04-07 12:45:00,
2013-04-07 07:51:00,59.7,55.5,29.89,South,179,4.0,7.0,86,0.00,,,0.00,Weather View 32 v70,2013-04-07 12:51:00,
2013-04-07 08:01:00,59.9,55.7,29.89,South,174,1.0,7.0,86,0.00,,,0.00,Weather View 32 v70,2013-04-07 13:01:00,
2013-04-07 08:06:00,60.2,56.0,29.89,SSE,165,4.0,7.0,86,0.00,,,0.00,Weather View 32 v70,2013-04-07 13:06:00,
2013-04-07 08:16:00,60.7,56.2,29.90,South,172,0.0,8.0,85,0.00,,,0.00,Weather View 32 v70,2013-04-07 13:16:00,
2013-04-07 08:25:00,61.6,56.7,29.90,South,176,4.0,8.0,84,0.00,,,0.00,Weather View 32 v70,2013-04-07 13:25:00,
2013-04-07 08:30:00,61.8,56.6,29.90,SSE,160,4.0,9.0,83,0.00,,,0.00,Weather View 32 v70,2013-04-07 13:30:00,
2013-04-07 08:36:00,61.9,56.7,29.90,SSE,162,3.0,11.0,83,0.00,,,0.00,Weather View 32 v70,2013-04-07 13:36:00,
2013-04-07 08:46:00,61.9,56.7,29.90,South,175,4.0,11.0,83,0.00,,,0.00,Weather View 32 v70,2013-04-07 13:46:00,
2013-04-07 08:56:00,62.5,56.9,29.90,South,181,6.0,11.0,82,0.00,,,0.00,Weather View 32 v70,2013-04-07 13:56:00,
2013-04-07 09:01:00,62.9,57.0,29.90,South,182,5.0,11.0,81,0.00,,,0.00,Weather View 32 v70,2013-04-07 14:01:00,
2013-04-07 09:11:00,63.4,57.1,29.89,SSE,160,0.0,12.0,80,0.00,,,0.00,Weather View 32 v70,2013-04-07 14:11:00,
2013-04-07 09:16:00,63.6,57.3,29.89,SSE,147,5.0,13.0,80,0.00,,,0.00,Weather View 32 v70,2013-04-07 14:16:00,
2013-04-07 09:26:00,63.7,57.4,29.89,South,188,7.0,14.0,80,0.00,,,0.00,Weather View 32 v70,2013-04-07 14:26:00,
2013-04-07 09:36:00,64.1,57.1,29.89,South,179,8.0,14.0,78,0.00,,,0.00,Weather View 32 v70,2013-04-07 14:36:00,
2013-04-07 09:46:00,64.3,57.3,29.89,SSE,164,6.0,14.0,78,0.00,,,0.00,Weather View 32 v70,2013-04-07 14:46:00,
2013-04-07 09:56:00,64.6,57.6,29.89,South,172,3.0,14.0,78,0.00,,,0.00,Weather View 32 v70,2013-04-07 14:56:00,
2013-04-07 10:01:00,64.5,57.5,29.89,SSW,195,4.0,14.0,78,0.00,,,0.00,Weather View 32 v70,2013-04-07 15:01:00,
2013-04-07 10:06:00,64.7,57.7,29.89,SSE,162,9.0,15.0,78,0.00,,,0.00,Weather View 32 v70,2013-04-07 15:06:00,
2013-04-07 10:16:00,65.0,58.0,29.90,SSE,156,8.0,15.0,78,0.00,,,0.00,Weather View 32 v70,2013-04-07 15:16:00,
2013-04-07 10:25:00,65.5,58.1,29.90,South,179,8.0,15.0,77,0.00,,,0.00,Weather View 32 v70,2013-04-07 15:25:00,
2013-04-07 10:31:00,65.5,58.1,29.90,South,187,10.0,17.0,77,0.00,,,0.00,Weather View 32 v70,2013-04-07 15:31:00,
2013-04-07 10:36:00,65.5,58.1,29.90,SSE,166,13.0,17.0,77,0.00,,,0.00,Weather View 32 v70,2013-04-07 15:36:00,
2013-04-07 10:46:00,65.7,58.3,29.90,South,187,11.0,17.0,77,0.00,,,0.00,Weather View 32 v70,2013-04-07 15:46:00,
2013-04-07 10:55:00,65.4,58.0,29.90,South,181,8.0,17.0,77,0.00,,,0.00,Weather View 32 v70,2013-04-07 15:55:00,
2013-04-07 11:00:00,64.9,57.9,29.90,South,169,7.0,17.0,78,0.00,,,0.00,Weather View 32 v70,2013-04-07 16:00:00,
2013-04-07 11:11:00,64.7,58.0,29.90,South,188,10.0,18.0,79,0.00,,,0.00,Weather View 32 v70,2013-04-07 16:11:00,
2013-04-07 11:17:00,64.7,58.0,29.90,SSE,162,6.0,18.0,79,0.00,,,0.00,Weather View 32 v70,2013-04-07 16:17:00,
2013-04-07 11:25:00,64.7,57.7,29.90,SSE,167,8.0,19.0,78,0.00,,,0.00,Weather View 32 v70,2013-04-07 16:25:00,
2013-04-07 11:31:00,64.7,57.7,29.90,South,175,6.0,19.0,78,0.00,,,0.00,Weather View 32 v70,2013-04-07 16:31:00,
2013-04-07 11:40:00,64.4,57.7,29.90,South,174,7.0,19.0,79,0.00,,,0.00,Weather View 32 v70,2013-04-07 16:40:00,
2013-04-07 11:45:00,64.5,57.8,29.90,South,184,5.0,19.0,79,0.00,,,0.00,Weather View 32 v70,2013-04-07 16:45:00,
2013-04-07 11:56:00,64.6,57.9,29.90,South,174,9.0,19.0,79,0.00,,,0.00,Weather View 32 v70,2013-04-07 16:56:00,
2013-04-07 12:01:00,64.5,57.8,29.90,South,184,10.0,19.0,79,0.00,,,0.00,Weather View 32 v70,2013-04-07 17:01:00,
2013-04-07 12:06:00,64.5,57.8,29.89,SSE,168,5.0,19.0,79,0.00,,,0.00,Weather View 32 v70,2013-04-07 17:06:00,
2013-04-07 12:15:00,64.7,58.0,29.89,SSE,150,2.0,19.0,79,0.00,,,0.00,Weather View 32 v70,2013-04-07 17:15:00,
2013-04-07 12:21:00,64.9,58.2,29.88,SSE,162,8.0,17.0,79,0.00,,,0.00,Weather View 32 v70,2013-04-07 17:21:00,
2013-04-07 12:25:00,65.2,58.1,29.88,South,185,7.0,17.0,78,0.00,,,0.00,Weather View 32 v70,2013-04-07 17:25:00,
2013-04-07 12:35:00,65.6,58.2,29.88,SSE,168,5.0,16.0,77,0.00,,,0.00,Weather View 32 v70,2013-04-07 17:35:00,
2013-04-07 12:41:00,65.5,58.1,29.88,South,181,6.0,16.0,77,0.00,,,0.00,Weather View 32 v70,2013-04-07 17:41:00,
2013-04-07 12:45:00,65.6,58.5,29.87,SE,135,15.0,16.0,78,0.00,,,0.00,Weather View 32 v70,2013-04-07 17:45:00,
2013-04-07 12:51:00,65.6,58.2,29.87,SSE,150,8.0,16.0,77,0.00,,,0.00,Weather View 32 v70,2013-04-07 17:51:00,
2013-04-07 13:00:00,65.7,58.3,29.87,SE,130,11.0,15.0,77,0.00,,,0.00,Weather View 32 v70,2013-04-07 18:00:00,
2013-04-07 13:05:00,65.7,58.3,29.86,SSE,161,0.0,15.0,77,0.00,,,0.00,Weather View 32 v70,2013-04-07 18:05:00,
2013-04-07 13:11:00,66.0,58.6,29.86,SSE,153,0.0,15.0,77,0.00,,,0.00,Weather View 32 v70,2013-04-07 18:11:00,
2013-04-07 13:16:00,66.1,58.7,29.86,SSE,149,6.0,15.0,77,0.00,,,0.00,Weather View 32 v70,2013-04-07 18:16:00,
2013-04-07 13:21:00,66.0,58.6,29.85,SSE,158,5.0,15.0,77,0.00,,,0.00,Weather View 32 v70,2013-04-07 18:21:00,
2013-04-07 13:26:00,65.6,58.2,29.85,SSE,151,9.0,17.0,77,0.00,,,0.00,Weather View 32 v70,2013-04-07 18:26:00,
2013-04-07 13:30:00,65.5,58.4,29.85,South,172,6.0,17.0,78,0.00,,,0.00,Weather View 32 v70,2013-04-07 18:30:00,
2013-04-07 13:35:00,65.6,58.5,29.85,SE,133,6.0,17.0,78,0.00,,,0.00,Weather View 32 v70,2013-04-07 18:35:00,
2013-04-07 13:45:00,65.7,58.6,29.84,SSE,157,6.0,17.0,78,0.00,,,0.00,Weather View 32 v70,2013-04-07 18:45:00,
2013-04-07 13:51:00,66.0,58.6,29.83,SSE,166,3.0,17.0,77,0.00,,,0.00,Weather View 32 v70,2013-04-07 18:51:00,
2013-04-07 13:56:00,65.7,58.6,29.83,SSE,158,10.0,17.0,78,0.00,,,0.00,Weather View 32 v70,2013-04-07 18:56:00,
2013-04-07 14:01:00,65.8,58.7,29.83,SSE,165,6.0,17.0,78,0.00,,,0.00,Weather View 32 v70,2013-04-07 19:01:00,
2013-04-07 14:10:00,65.8,58.7,29.82,SSE,160,10.0,17.0,78,0.00,,,0.00,Weather View 32 v70,2013-04-07 19:10:00,
2013-04-07 14:15:00,65.9,58.5,29.82,SE,143,3.0,21.0,77,0.00,,,0.00,Weather View 32 v70,2013-04-07 19:15:00,
2013-04-07 14:25:00,66.3,58.8,29.81,SE,141,5.0,21.0,77,0.00,,,0.00,Weather View 32 v70,2013-04-07 19:25:00,
2013-04-07 14:36:00,66.2,58.4,29.81,SSE,163,10.0,21.0,76,0.00,,,0.00,Weather View 32 v70,2013-04-07 19:36:00,
2013-04-07 14:45:00,66.5,58.7,29.80,SE,141,4.0,21.0,76,0.00,,,0.00,Weather View 32 v70,2013-04-07 19:45:00,
2013-04-07 14:51:00,66.4,58.6,29.80,South,182,6.0,21.0,76,0.00,,,0.00,Weather View 32 v70,2013-04-07 19:51:00,
2013-04-07 15:01:00,66.2,58.4,29.79,SE,142,10.0,21.0,76,0.00,,,0.00,Weather View 32 v70,2013-04-07 20:01:00,
2013-04-07 15:05:00,66.1,58.7,29.79,SE,131,1.0,21.0,77,0.00,,,0.00,Weather View 32 v70,2013-04-07 20:05:00,
2013-04-07 15:10:00,66.4,58.6,29.79,SSE,156,9.0,21.0,76,0.00,,,0.00,Weather View 32 v70,2013-04-07 20:10:00,
2013-04-07 15:15:00,66.4,58.6,29.79,SE,142,3.0,20.0,76,0.00,,,0.00,Weather View 32 v70,2013-04-07 20:15:00,
2013-04-07 15:20:00,66.7,58.9,29.79,South,175,5.0,20.0,76,0.00,,,0.00,Weather View 32 v70,2013-04-07 20:20:00,
2013-04-07 15:25:00,66.7,58.9,29.79,SSE,156,6.0,20.0,76,0.00,,,0.00,Weather View 32 v70,2013-04-07 20:25:00,
2013-04-07 15:31:00,66.6,58.8,29.79,SSE,154,5.0,20.0,76,0.00,,,0.00,Weather View 32 v70,2013-04-07 20:31:00,
2013-04-07 15:40:00,66.1,58.7,29.78,SSE,152,9.0,25.0,77,0.00,,,0.00,Weather View 32 v70,2013-04-07 20:40:00,
2013-04-07 15:46:00,66.1,58.7,29.78,South,171,3.0,25.0,77,0.00,,,0.00,Weather View 32 v70,2013-04-07 20:46:00,
2013-04-07 15:55:00,66.1,59.0,29.78,South,178,6.0,25.0,78,0.00,,,0.00,Weather View 32 v70,2013-04-07 20:55:00,
2013-04-07 16:00:00,65.9,58.8,29.77,SSE,166,6.0,25.0,78,0.00,,,0.00,Weather View 32 v70,2013-04-07 21:00:00,
2013-04-07 16:06:00,65.8,58.7,29.77,SE,140,8.0,25.0,78,0.00,,,0.00,Weather View 32 v70,2013-04-07 21:06:00,
2013-04-07 16:16:00,65.7,58.6,29.77,SSE,160,2.0,25.0,78,0.00,,,0.00,Weather View 32 v70,2013-04-07 21:16:00,
2013-04-07 16:26:00,65.6,58.9,29.77,South,189,6.0,25.0,79,0.00,,,0.00,Weather View 32 v70,2013-04-07 21:26:00,
2013-04-07 16:35:00,65.5,58.8,29.76,SE,143,6.0,24.0,79,0.00,,,0.00,Weather View 32 v70,2013-04-07 21:35:00,
2013-04-07 16:40:00,65.5,58.8,29.76,SSE,150,9.0,24.0,79,0.00,,,0.00,Weather View 32 v70,2013-04-07 21:40:00,
2013-04-07 16:46:00,65.4,59.0,29.76,SSE,168,10.0,24.0,80,0.00,,,0.00,Weather View 32 v70,2013-04-07 21:46:00,
2013-04-07 16:55:00,65.4,59.0,29.76,South,188,9.0,24.0,80,0.00,,,0.00,Weather View 32 v70,2013-04-07 21:55:00,
2013-04-07 17:00:00,65.3,59.0,29.76,SSW,199,10.0,24.0,80,0.00,,,0.00,Weather View 32 v70,2013-04-07 22:00:00,
2013-04-07 17:05:00,65.4,59.0,29.76,SE,133,3.0,24.0,80,0.00,,,0.00,Weather View 32 v70,2013-04-07 22:05:00,
2013-04-07 17:10:00,65.5,59.1,29.76,SSE,166,1.0,24.0,80,0.00,,,0.00,Weather View 32 v70,2013-04-07 22:10:00,
2013-04-07 17:15:00,65.5,59.1,29.76,SE,137,10.0,24.0,80,0.00,,,0.00,Weather View 32 v70,2013-04-07 22:15:00,
2013-04-07 17:20:00,65.6,59.2,29.75,SE,137,12.0,24.0,80,0.00,,,0.00,Weather View 32 v70,2013-04-07 22:20:00,
2013-04-07 17:30:00,65.8,59.1,29.75,South,180,14.0,23.0,79,0.00,,,0.00,Weather View 32 v70,2013-04-07 22:30:00,
2013-04-07 17:35:00,65.8,59.1,29.75,SE,139,11.0,23.0,79,0.00,,,0.00,Weather View 32 v70,2013-04-07 22:35:00,
2013-04-07 17:40:00,65.8,59.1,29.75,South,172,6.0,23.0,79,0.00,,,0.00,Weather View 32 v70,2013-04-07 22:40:00,
2013-04-07 17:50:00,66.0,59.3,29.75,SSW,197,4.0,23.0,79,0.00,,,0.00,Weather View 32 v70,2013-04-07 22:50:00,
2013-04-07 17:55:00,66.0,59.3,29.75,SE,141,9.0,23.0,79,0.00,,,0.00,Weather View 32 v70,2013-04-07 22:55:00,
2013-04-07 18:01:00,65.9,59.2,29.75,South,185,5.0,23.0,79,0.00,,,0.00,Weather View 32 v70,2013-04-07 23:01:00,
2013-04-07 18:10:00,65.9,59.2,29.74,SE,140,8.0,23.0,79,0.00,,,0.00,Weather View 32 v70,2013-04-07 23:10:00,
2013-04-07 18:21:00,66.0,59.3,29.74,South,181,6.0,23.0,79,0.00,,,0.00,Weather View 32 v70,2013-04-07 23:21:00,
2013-04-07 18:30:00,66.1,59.4,29.75,SE,142,9.0,19.0,79,0.00,,,0.00,Weather View 32 v70,2013-04-07 23:30:00,
2013-04-07 18:35:00,66.2,59.5,29.74,SSE,159,12.0,19.0,79,0.00,,,0.00,Weather View 32 v70,2013-04-07 23:35:00,
2013-04-07 18:45:00,66.2,59.5,29.74,SSE,160,8.0,19.0,79,0.00,,,0.00,Weather View 32 v70,2013-04-07 23:45:00,
2013-04-07 18:55:00,66.3,59.6,29.74,South,170,2.0,19.0,79,0.00,,,0.00,Weather View 32 v70,2013-04-07 23:55:00,
2013-04-07 19:00:00,66.4,59.7,29.74,South,178,9.0,19.0,79,0.00,,,0.00,Weather View 32 v70,2013-04-08 00:00:00,
2013-04-07 19:05:00,66.4,59.7,29.73,SSE,152,3.0,19.0,79,0.00,,,0.00,Weather View 32 v70,2013-04-08 00:05:00,
2013-04-07 19:10:00,66.4,59.7,29.73,SSE,156,8.0,19.0,79,0.00,,,0.00,Weather View 32 v70,2013-04-08 00:10:00,
2013-04-07 19:20:00,66.5,59.4,29.74,South,187,7.0,19.0,78,0.00,,,0.00,Weather View 32 v70,2013-04-08 00:20:00,
2013-04-07 19:25:00,66.6,59.5,29.74,SSE,165,10.0,19.0,78,0.00,,,0.00,Weather View 32 v70,2013-04-08 00:25:00,
2013-04-07 19:35:00,66.7,59.6,29.74,South,173,4.0,19.0,78,0.00,,,0.00,Weather View 32 v70,2013-04-08 00:35:00,
2013-04-07 19:45:00,66.7,59.6,29.75,South,176,4.0,18.0,78,0.00,,,0.00,Weather View 32 v70,2013-04-08 00:45:00,
2013-04-07 19:50:00,66.7,59.6,29.75,SSE,157,6.0,18.0,78,0.00,,,0.00,Weather View 32 v70,2013-04-08 00:50:00,
2013-04-07 19:55:00,66.7,59.6,29.75,SSE,168,3.0,18.0,78,0.00,,,0.00,Weather View 32 v70,2013-04-08 00:55:00,
2013-04-07 20:00:00,66.7,59.6,29.75,South,180,7.0,18.0,78,0.00,,,0.00,Weather View 32 v70,2013-04-08 01:00:00,
2013-04-07 20:05:00,66.7,59.6,29.75,SSE,168,9.0,18.0,78,0.00,,,0.00,Weather View 32 v70,2013-04-08 01:05:00,
2013-04-07 20:10:00,66.8,59.7,29.75,South,189,5.0,18.0,78,0.00,,,0.00,Weather View 32 v70,2013-04-08 01:10:00,
2013-04-07 20:15:00,66.8,59.7,29.75,South,172,3.0,18.0,78,0.00,,,0.00,Weather View 32 v70,2013-04-08 01:15:00,
2013-04-07 20:22:00,66.8,59.7,29.75,South,169,3.0,18.0,78,0.00,,,0.00,Weather View 32 v70,2013-04-08 01:22:00,
2013-04-07 20:30:00,66.9,59.4,29.76,South,174,9.0,18.0,77,0.00,,,0.00,Weather View 32 v70,2013-04-08 01:30:00,
2013-04-07 20:35:00,66.9,59.4,29.75,SSE,152,0.0,17.0,77,0.00,,,0.00,Weather View 32 v70,2013-04-08 01:35:00,
2013-04-07 20:45:00,67.0,59.5,29.75,South,177,7.0,17.0,77,0.00,,,0.00,Weather View 32 v70,2013-04-08 01:45:00,
2013-04-07 20:50:00,67.0,59.5,29.75,South,174,3.0,17.0,77,0.00,,,0.00,Weather View 32 v70,2013-04-08 01:50:00,
2013-04-07 20:55:00,67.1,59.6,29.75,South,172,3.0,17.0,77,0.00,,,0.00,Weather View 32 v70,2013-04-08 01:55:00,
2013-04-07 21:00:00,67.1,59.6,29.75,SSE,166,0.0,17.0,77,0.00,,,0.00,Weather View 32 v70,2013-04-08 02:00:00,
2013-04-07 21:05:00,67.1,59.3,29.76,SSE,167,4.0,17.0,76,0.00,,,0.00,Weather View 32 v70,2013-04-08 02:05:00,
2013-04-07 21:10:00,67.1,59.3,29.76,South,171,4.0,15.0,76,0.00,,,0.00,Weather View 32 v70,2013-04-08 02:10:00,
2013-04-07 21:15:00,67.0,59.2,29.76,SSE,155,6.0,15.0,76,0.00,,,0.00,Weather View 32 v70,2013-04-08 02:15:00,
2013-04-07 21:23:00,67.0,59.2,29.77,SSE,164,6.0,15.0,76,0.00,,,0.00,Weather View 32 v70,2013-04-08 02:23:00,
2013-04-07 21:31:00,67.0,59.5,29.77,SSE,158,1.0,15.0,77,0.00,,,0.00,Weather View 32 v70,2013-04-08 02:31:00,
2013-04-07 21:40:00,66.9,59.4,29.77,South,169,1.0,15.0,77,0.00,,,0.00,Weather View 32 v70,2013-04-08 02:40:00,
2013-04-07 21:45:00,66.8,59.3,29.77,SSE,154,6.0,15.0,77,0.00,,,0.00,Weather View 32 v70,2013-04-08 02:45:00,
2013-04-07 21:55:00,66.7,59.2,29.77,SSE,154,0.0,15.0,77,0.00,,,0.00,Weather View 32 v70,2013-04-08 02:55:00,
2013-04-07 22:01:00,66.6,59.1,29.78,SSE,152,0.0,15.0,77,0.00,,,0.00,Weather View 32 v70,2013-04-08 03:01:00,
2013-04-07 22:10:00,66.5,59.0,29.78,SSE,150,5.0,12.0,77,0.00,,,0.00,Weather View 32 v70,2013-04-08 03:10:00,
2013-04-07 22:15:00,66.3,58.8,29.78,SE,143,7.0,12.0,77,0.00,,,0.00,Weather View 32 v70,2013-04-08 03:15:00,
2013-04-07 22:20:00,66.2,59.1,29.77,SE,145,2.0,12.0,78,0.00,,,0.00,Weather View 32 v70,2013-04-08 03:20:00,
2013-04-07 22:30:00,66.0,58.9,29.78,SE,143,0.0,11.0,78,0.00,,,0.00,Weather View 32 v70,2013-04-08 03:30:00,
2013-04-07 22:40:00,65.8,58.7,29.78,SSE,152,0.0,11.0,78,0.00,,,0.00,Weather View 32 v70,2013-04-08 03:40:00,
2013-04-07 22:46:00,65.8,58.7,29.78,SSE,147,3.0,11.0,78,0.00,,,0.00,Weather View 32 v70,2013-04-08 03:46:00,
2013-04-07 22:55:00,65.7,58.6,29.78,SE,144,0.0,11.0,78,0.00,,,0.00,Weather View 32 v70,2013-04-08 03:55:00,
2013-04-07 23:00:00,65.6,58.5,29.78,SSE,147,0.0,11.0,78,0.00,,,0.00,Weather View 32 v70,2013-04-08 04:00:00,
2013-04-07 23:10:00,65.5,58.8,29.78,SSE,150,4.0,11.0,79,0.00,,,0.00,Weather View 32 v70,2013-04-08 04:10:00,
2013-04-07 23:15:00,65.5,58.8,29.78,SSE,152,5.0,11.0,79,0.00,,,0.00,Weather View 32 v70,2013-04-08 04:15:00,
2013-04-07 23:20:00,65.4,58.7,29.78,SSE,162,7.0,11.0,79,0.00,,,0.00,Weather View 32 v70,2013-04-08 04:20:00,
2013-04-07 23:25:00,65.5,58.8,29.78,SSE,149,0.0,11.0,79,0.00,,,0.00,Weather View 32 v70,2013-04-08 04:25:00,
2013-04-07 23:30:00,65.4,58.7,29.77,SSE,150,0.0,10.0,79,0.00,,,0.00,Weather View 32 v70,2013-04-08 04:30:00,
2013-04-07 23:40:00,65.4,58.7,29.77,SSE,154,0.0,8.0,79,0.00,,,0.00,Weather View 32 v70,2013-04-08 04:40:00,
2013-04-07 23:45:00,65.3,58.6,29.77,SSE,147,0.0,8.0,79,0.00,,,0.00,Weather View 32 v70,2013-04-08 04:45:00,
2013-04-07 23:50:00,65.2,58.5,29.77,SSE,147,6.0,8.0,79,0.00,,,0.00,Weather View 32 v70,2013-04-08 04:50:00,
2013-04-07 23:55:00,65.2,58.5,29.77,SSE,147,0.0,8.0,79,0.00,,,0.00,Weather View 32 v70,2013-04-08 04:55:00,